Location: El Conde
(10.2895°N, 67.2409°W)
Time: 18:30:46
(UTC+00:00)

GPS 2-15 Rocket1 - Pass Details

Date: 19 May 2024
Orbit: 615 x 664 km, 19.8° (Epoch: 12 June)

Event Time Altitude Azimuth Distance (km) Brightness Sun altitude
Rises 23:18:08 0° 276° (W) 2,967 8.3 -8.6°
Reaches altitude 10° 23:20:41 10° 268° (W) 2,049 6.9 -9.2°
Maximum altitude 23:25:07 36° 201° (SSW) 1,013 4.1 -10.2°
Enters shadow 23:29:02 12° 137° (SE) 1,864 5.0 -11.0°
